Helicity
-13 -7 -3 17 4 -10 -15 37 51 57 38 13 -0 3 -8 30 -61 -31 29 56 80 105 114 61 12 28 31 49 63 40 75 67 69 75 79 76 95 82 85 89 88 90 101 114 147
-15 -5 8 13 1 -9 11 32 30 37 35 25 14 -31 -52 -29 -9 -13 43 47 61 60 33 35 38 57 48 55 55 71 72 58 57 82 89 93 100 90 95 117 113 108 138 156 162
-4 -6 -0 2 -6 -19 11 21 15 9 21 11 2 -21 -54 -42 27 -4 60 62 63 55 -9 39 24 30 60 68 69 63 61 58 69 88 84 85 90 98 131 114 127 162 154 102 113
-4 -12 -11 1 12 11 8 22 23 11 14 12 -4 -29 -28 -19 17 9 63 63 57 55 16 18 23 47 66 74 62 72 81 64 65 70 72 80 73 86 155 134 153 133 109 100 79
-8 -14 -6 1 8 16 31 47 38 31 22 18 -5 -40 -4 19 7 17 34 15 9 24 58 51 85 53 65 56 52 62 42 66 60 62 53 63 76 92 95 104 66 126 129 79 30
1 -0 -0 1 3 8 35 65 45 32 22 20 10 -59 -60 26 40 17 -8 -7 31 42 67 68 48 48 56 56 56 34 52 56 35 54 48 63 82 99 75 100 74 125 96 61 40
14 10 7 6 3 -1 30 42 31 31 19 9 -4 -6 -31 -10 13 6 -7 -4 8 34 33 30 13 34 22 43 13 19 39 40 51 56 54 50 90 84 60 129 183 122 84 60 45
25 17 20 18 16 15 26 50 29 13 25 -23 -29 3 -16 32 33 34 -9 -12 -23 23 24 4 3 11 24 12 31 29 46 34 42 53 58 65 81 89 63 143 154 122 82 61 46
43 37 35 35 47 37 16 21 61 38 52 -10 -9 7 -12 42 30 41 1 -17 -41 -0 14 3 -1 8 15 21 39 52 27 37 34 74 45 77 125 95 167 193 123 108 94 64 50
46 44 41 41 53 42 45 15 48 16 -20 -3 2 7 -1 6 36 53 -9 -8 -14 -6 15 23 31 29 40 46 13 19 26 50 53 61 67 148 238 218 137 186 142 106 94 108 68
53 53 52 38 50 53 17 -2 11 -5 74 4 -15 -9 6 24 40 32 23 -35 -16 8 11 15 37 15 -6 -6 10 26 44 52 82 95 -23 88 129 205 75 88 86 104 108 102 59
60 65 53 37 38 70 9 21 12 14 15 -12 6 11 26 35 7 52 4 30 2 -28 -21 23 12 4 4 4 14 29 24 5 45 89 18 32 112 46 63 41 65 107 122 102 81
61 81 64 35 10 -4 10 33 16 -19 4 -6 6 13 11 21 23 -1 4 14 22 1 1 38 18 28 34 43 26 41 31 43 60 31 51 62 33 56 78 64 91 122 114 86 81
57 72 69 50 13 -1 3 3 -10 -22 17 -11 1 19 29 41 37 22 17 25 33 26 25 62 37 42 56 55 30 21 47 73 65 61 77 60 64 64 83 98 111 130 104 89 113
45 50 50 16 13 10 13 -7 -18 -0 12 5 13 54 22 33 33 10 8 28 48 32 29 14 39 42 70 36 49 40 75 77 75 90 90 75 98 67 77 126 137 98 69 64 74
39 52 32 -4 -2 9 1 -9 12 12 -13 -0 27 14 39 39 41 35 41 43 41 50 41 34 39 50 33 42 40 40 56 94 95 122 109 59 115 93 125 197 185 178 170 107 83
29 27 -21 -15 16 11 5 21 13 25 12 6 26 35 32 31 48 56 58 59 67 37 18 19 39 31 43 27 36 44 64 52 103 135 103 146 131 66 98 178 198 242 236 107 1
16 -2 -15 -18 12 13 21 32 38 20 31 45 48 44 63 58 70 66 85 88 83 22 37 10 -6 62 64 66 57 51 49 82 115 126 174 197 66 128 156 311 331 326 122 -2 -92
-7 4 13 10 10 23 40 48 19 38 52 45 54 67 72 79 82 103 95 100 57 74 16 45 47 171 94 52 53 46 63 86 129 106 159 123 132 158 250 349 391 223 58 35 62
16 19 21 21 24 34 63 44 47 64 63 64 83 97 96 77 104 126 123 109 83 93 44 110 80 103 88 91 65 78 94 133 107 152 178 226 190 131 246 270 303 172 88 78 96
24 39 29 41 35 69 66 54 78 83 84 107 108 117 114 109 114 120 139 116 110 106 130 161 120 120 110 109 113 107 119 133 97 156 203 229 176 236 213 135 189 113 -8 81 79
30 42 32 51 67 73 82 83 83 94 103 119 128 129 119 130 152 167 144 138 144 139 142 106 180 137 142 170 129 115 111 175 174 171 308 349 414 118 122 147 132 9 47 111 125
41 32 50 64 76 80 73 99 97 107 104 120 132 124 131 163 185 197 166 120 146 145 151 125 170 159 72 104 144 180 180 223 299 325 405 385 433 316 144 210 24 57 121 125 138
57 67 82 105 94 105 96 106 117 117 125 140 162 156 180 208 169 233 214 135 136 186 187 198 260 251 226 206 297 276 244 310 366 397 413 613 325 175 106 119 80 103 129 143 101
74 76 78 119 134 127 123 125 133 125 126 142 172 143 218 260 210 230 185 207 202 200 194 219 253 285 205 151 212 170 161 354 473 296 411 242 312 245 217 97 98 146 191 101 104
79 100 99 89 103 132 131 123 126 146 160 151 186 217 232 274 243 222 279 246 198 249 212 231 254 255 249 116 156 212 148 246 258 185 255 195 141 138 14 109 185 154 62 84 90
57 76 104 125 143 148 121 140 138 162 139 154 164 251 210 197 217 234 228 261 270 297 284 316 288 285 268 252 216 167 136 264 317 259 332 302 220 146 155 190 122 61 77 97 122
Wind_Speed
29 31 34 34 36 37 34 32 36 37 35 35 39 37 35 36 46 47 45 44 46 47 46 41 39 39 35 35 36 32 32 31 31 29 29 27 32 32 28 26 25 27 28 28 28
33 34 35 35 36 36 36 37 38 36 35 35 36 36 35 39 41 51 50 51 50 49 47 43 41 42 36 37 36 34 32 30 32 30 31 30 30 31 29 29 27 23 31 29 29
36 37 36 36 36 38 39 40 40 40 39 35 36 38 43 41 37 51 55 54 53 51 45 38 40 37 37 38 40 35 32 28 33 33 34 31 29 28 28 30 22 24 30 25 30
38 38 36 36 38 40 40 39 39 37 38 37 38 42 45 43 43 51 55 54 52 51 41 38 37 36 35 35 37 31 33 33 32 35 33 32 33 29 16 26 25 25 26 27 31
40 40 38 38 39 39 37 36 36 36 37 35 38 44 41 49 52 45 54 53 51 48 45 39 40 36 33 32 34 33 30 35 35 34 34 35 31 26 16 9 6 20 25 27 32
40 38 37 38 38 37 33 32 35 39 38 36 38 43 49 49 44 48 56 54 53 49 47 42 36 36 33 33 34 32 31 33 36 38 41 37 39 42 33 24 4 13 18 25 30
41 39 38 37 38 36 36 38 37 35 35 36 40 42 55 53 45 56 58 49 52 47 44 43 40 34 31 32 31 29 36 38 40 42 44 45 42 30 31 32 13 13 17 23 27
44 40 38 35 35 35 33 32 31 27 28 36 43 41 46 45 48 60 59 48 49 41 39 40 40 39 37 31 34 38 37 51 44 48 40 51 40 40 24 28 12 13 17 21 25
42 39 35 33 33 32 31 26 26 31 19 35 42 39 46 45 58 62 57 55 48 42 40 39 37 40 41 38 37 45 47 54 51 46 48 42 32 34 28 21 11 10 15 17 22
38 35 35 33 33 33 34 26 22 25 37 36 46 38 49 52 52 61 53 53 49 44 39 42 40 41 49 47 45 48 51 51 51 47 50 28 22 22 17 10 7 8 11 16 18
34 35 34 31 30 29 30 33 33 38 47 46 46 44 47 37 39 63 57 50 50 50 45 44 47 48 47 46 41 41 47 52 37 44 70 44 22 18 28 14 6 7 5 12 16
30 33 32 28 24 30 38 37 35 34 42 46 43 47 43 42 50 55 42 50 54 58 47 44 47 42 41 42 48 46 55 57 32 40 62 51 17 40 50 38 22 12 5 10 19
24 26 26 25 22 38 44 41 36 35 36 46 47 49 46 45 49 59 62 48 54 57 55 46 45 43 45 49 58 54 49 51 48 53 39 56 40 50 48 43 39 30 19 18 18
29 30 26 23 39 41 42 37 35 34 35 49 49 46 44 41 44 50 55 49 51 53 50 47 45 49 46 49 54 56 44 51 51 57 46 55 42 47 51 47 42 33 29 27 28
29 29 31 39 39 41 36 34 33 34 39 43 41 36 43 51 42 56 53 50 51 50 53 56 54 55 48 52 53 47 56 45 45 42 46 42 48 43 44 51 46 32 30 29 33
34 33 35 42 44 39 35 34 35 39 42 41 41 51 46 50 49 49 54 54 45 47 55 52 47 48 50 49 45 52 53 46 41 38 44 39 53 49 44 49 47 41 40 43 43
34 32 42 43 41 37 36 36 40 44 39 45 45 48 47 52 50 57 57 62 57 61 69 55 53 45 49 56 44 64 58 54 47 47 44 41 53 37 40 42 40 42 48 52 52
39 38 43 46 39 37 36 39 43 40 41 39 42 45 47 56 49 57 53 55 58 57 59 68 66 59 59 50 54 53 50 51 55 54 55 48 38 46 41 37 36 49 54 60 62
41 36 40 48 40 37 37 44 39 39 39 45 45 45 46 48 51 57 57 49 52 58 66 66 57 53 49 49 48 47 49 41 48 49 55 42 41 50 38 34 37 55 66 68 74
38 35 43 46 39 37 40 39 35 36 38 39 48 44 50 50 55 62 53 44 51 47 55 53 62 48 46 47 41 45 39 48 49 65 69 55 55 51 42 33 40 63 73 79 87
38 37 45 43 38 41 41 37 36 36 39 43 42 45 44 50 54 56 50 46 42 51 55 52 46 55 51 46 49 46 42 40 47 46 58 69 58 48 34 37 48 64 83 92 99
39 39 46 40 41 40 40 40 36 36 39 42 41 42 44 50 54 52 50 46 41 47 59 46 50 55 56 46 39 36 37 41 55 56 48 60 70 46 40 35 59 80 85 92 92
40 40 42 39 42 43 38 39 38 39 39 41 42 42 45 51 61 50 51 44 41 46 48 46 52 70 63 47 42 44 42 42 47 51 54 60 63 47 43 53 76 90 90 95 92
43 44 45 43 39 39 43 44 44 39 41 41 45 46 50 53 47 54 54 47 40 45 43 42 48 45 56 60 59 59 54 48 44 57 63 60 69 58 67 77 87 82 89 90 91
45 42 41 50 51 46 44 43 47 49 41 42 50 49 54 60 59 55 51 50 46 43 42 45 56 51 49 53 59 56 55 50 47 51 61 65 67 71 67 73 71 81 89 94 92
45 46 45 46 44 48 47 47 50 50 47 52 57 56 49 54 52 62 52 54 52 44 44 44 62 63 70 59 57 64 57 50 46 48 56 64 73 59 54 62 76 82 94 95 97
42 40 45 46 47 52 48 46 50 52 51 45 56 61 57 51 50 52 51 50 47 48 49 50 60 68 77 65 74 81 50 43 55 54 52 67 66 60 72 78 80 97 91 91 96
Wind_Direction
321 322 325 322 331 336 329 315 321 322 317 315 313 299 290 308 358 4 349 311 304 297 298 294 339 341 359 359 351 5 6 12 20 27 34 37 23 27 36 29 29 28 26 28 32
335 333 328 323 324 326 315 313 319 320 317 312 315 313 305 321 4 357 329 316 309 306 312 325 334 337 351 348 347 352 1 11 14 25 27 30 27 22 25 21 21 30 24 31 26
340 339 334 328 326 326 317 316 320 322 323 313 320 330 354 354 21 339 318 317 313 309 327 353 339 350 348 349 343 346 355 15 8 14 17 25 23 22 19 15 26 36 32 29 20
339 335 326 318 313 314 313 310 309 311 318 319 317 324 6 27 359 353 313 315 316 317 346 352 346 348 351 350 344 356 347 359 8 5 15 16 14 11 14 18 31 35 31 24 15
340 333 320 311 306 302 298 295 297 299 300 303 318 333 30 5 1 346 314 321 335 346 348 350 349 350 357 360 352 349 357 356 3 6 11 9 9 9 355 7 18 25 29 22 16
333 323 315 310 306 300 290 287 297 301 298 300 313 355 16 5 27 345 326 349 346 356 353 357 2 2 11 2 357 357 1 358 357 358 360 5 2 4 15 13 126 39 26 20 16
331 323 313 305 301 292 282 281 282 285 298 305 325 13 10 14 33 355 340 12 1 2 8 8 2 9 9 2 13 14 353 351 350 353 355 0 0 14 15 20 57 38 24 20 16
331 321 312 301 293 284 278 272 268 269 275 313 353 26 19 37 29 359 351 18 4 23 21 14 8 19 7 19 4 355 353 334 348 351 5 358 357 6 19 14 24 22 16 15 18
322 313 300 292 285 273 275 263 251 251 175 50 24 28 14 30 10 3 6 8 8 21 21 9 11 11 5 0 356 344 338 334 345 354 356 3 354 358 10 6 13 13 7 11 14
313 304 295 287 285 277 260 220 247 335 15 40 28 26 13 12 21 6 13 17 23 14 24 8 8 7 353 349 345 340 340 345 349 353 352 348 308 327 314 329 347 360 359 8 12
309 306 300 287 286 274 283 14 38 23 10 28 27 31 23 37 51 2 18 13 23 19 15 9 6 4 1 359 3 357 352 347 2 360 337 359 315 319 10 14 0 324 351 9 10
303 307 302 283 276 293 25 32 54 65 25 37 41 35 42 38 25 344 329 29 17 13 16 19 14 19 10 9 355 354 343 343 7 4 349 358 333 17 14 22 27 30 39 18 17
293 302 295 273 268 352 27 45 73 63 39 22 34 32 36 33 28 345 5 30 14 10 6 18 18 16 4 355 340 349 354 355 354 354 8 357 10 8 14 21 23 25 34 29 20
300 305 297 264 37 37 32 59 65 65 30 343 19 29 33 38 30 28 20 23 14 13 16 13 12 4 2 358 349 347 1 354 353 353 358 360 2 6 6 12 20 26 28 24 16
296 299 303 343 42 33 58 64 69 60 356 25 35 48 35 26 29 10 18 12 11 7 4 356 354 354 0 354 352 354 350 354 355 358 358 3 0 4 7 7 15 25 23 16 4
304 305 312 7 25 47 58 61 59 19 357 22 31 14 22 22 22 20 12 12 15 7 2 2 6 358 357 358 359 354 354 358 2 4 357 4 357 357 6 5 13 19 18 8 1
301 304 350 23 41 50 51 48 15 5 22 8 14 15 16 11 15 11 10 4 4 356 344 358 359 2 0 351 1 351 354 353 355 355 353 358 351 359 1 3 12 17 14 6 1
308 328 7 13 32 38 44 26 1 14 14 23 16 13 10 7 12 6 8 4 3 0 353 343 342 349 349 355 351 354 359 354 346 347 343 348 354 357 1 14 23 15 9 1 358
326 9 14 355 15 27 26 1 8 14 16 8 10 7 8 9 6 3 1 3 3 358 351 346 345 349 351 354 356 355 353 359 348 348 343 349 350 347 354 2 6 3 359 356 352
359 4 2 358 10 19 9 6 15 18 16 14 0 7 357 0 359 357 0 5 359 4 360 352 342 353 352 354 1 355 0 349 351 340 338 340 339 342 347 352 351 350 350 348 345
355 351 352 360 7 2 355 4 9 14 11 4 2 357 360 357 355 355 357 360 4 357 357 355 355 347 350 348 345 348 349 353 348 344 337 335 338 349 352 342 343 345 343 342 341
347 340 348 1 350 357 353 358 6 5 3 360 0 357 356 352 348 350 349 353 0 358 350 358 350 344 343 349 352 353 349 344 337 337 334 331 327 341 342 349 345 339 340 339 340
344 343 352 358 341 344 354 355 357 355 356 354 352 352 351 347 342 347 347 352 354 353 352 353 347 338 343 353 355 343 341 339 337 333 321 325 328 349 344 336 336 335 337 337 339
341 330 340 351 355 349 343 342 344 352 348 349 346 346 343 340 341 340 339 345 350 348 350 348 340 334 330 331 336 330 328 325 324 324 323 311 313 320 321 328 331 335 335 337 339
340 337 342 328 335 342 343 340 338 338 346 346 339 337 337 333 333 333 337 338 341 345 346 344 333 330 322 322 322 319 315 318 311 306 312 316 317 322 327 329 332 335 336 337 339
334 332 335 332 336 335 337 335 333 335 338 334 330 333 333 328 329 328 333 334 333 341 340 341 332 333 328 329 330 325 320 319 311 311 306 307 312 318 330 333 333 335 336 336 337
337 338 332 327 329 328 330 331 331 332 332 333 328 326 325 323 326 328 327 329 328 329 328 331 331 332 327 334 333 328 341 336 329 326 327 324 324 333 331 332 334 333 335 336 337